Home > Weather > Fort Bragg > Past weeks

Flag for USA Past Weather in Fort Bragg, California, USA — Yesterday and Last 2 Weeks

Now
66 °F

Sunny.


Feels Like: 66 °F
Forecast: 56 / 74 °F
Wind: No wind

Location: Ukiah Municipal

Current Time: Jul 26, 2016 at 9:07:54 AM

Latest Report: Jul 26, 2016 at 7:56 AM


Visibility: 10 mi

Pressure: 29.91 "Hg

Humidity: 59%

Dew Point: 51 °F

Location of Fort BraggLocation

Past Weather in Fort Bragg — Graph

°F

Fort Bragg Temperature Yesterday

Maximum temperature yesterday: 101 °F (at 4:56 PM)
Minimum temperature yesterday: 57 °F (at 5:56 AM)
Average temperature yesterday: 79 °F

High & Low Weather Summary for the Past Weeks

 TemperatureHumidityPressure
High102 °F (Jul 15, 2:56 PM)86% (Jul 18, 5:56 AM)30.12 "Hg (Jul 18, 5:56 AM)
Low49 °F (Jul 21, 5:56 AM)11% (Jul 24, 3:56 PM)29.76 "Hg (Jul 16, 3:56 PM)
Average72 °F48%29.93 "Hg
* Reported Jul 11 7:56 AM — Jul 26 7:56 AM, Fort Bragg, Weather by CustomWeather, © 2016

Note: Actual official high and low records may vary slightly from our data, if they occured in-between our weather recording intervals... More about our weather records

Advertising

Fort Bragg Weather History for the Previous 24 Hours

Scroll right to see more
 ConditionsComfort  
Time TempWeatherWind HumidityBarometerVisibility
7:56 AM
Tue, Jul 26
66 °FSunny.No wind59%29.91 "Hg10 mi
6:56 AM63 °FClear.No wind60%29.90 "Hg10 mi
5:56 AM60 °FClear.No wind67%29.89 "Hg10 mi
4:56 AM62 °FClear.No wind62%29.88 "Hg10 mi
3:56 AM62 °FClear.No wind62%29.88 "Hg10 mi
2:56 AM64 °FClear.No wind63%29.87 "Hg10 mi
1:56 AM66 °FClear.No wind52%29.87 "Hg10 mi
12:56 AM67 °FClear.No wind59%29.87 "Hg10 mi
11:56 PM
Mon, Jul 25
71 °FClear.No wind51%29.87 "Hg10 mi
10:56 PM76 °FClear.No wind39%29.87 "Hg10 mi
9:56 PM77 °FClear.No wind42%29.88 "Hg10 mi
8:56 PM84 °FSunny.No wind26%29.85 "Hg10 mi
7:56 PM91 °FSunny.No wind19%29.85 "Hg10 mi
6:56 PM96 °FSunny.8 mph18%29.84 "Hg10 mi
5:56 PM99 °FSunny.7 mph19%29.82 "Hg10 mi
4:56 PM101 °FSunny.13 mph17%29.82 "Hg10 mi
3:56 PM100 °FSunny.14 mph17%29.82 "Hg10 mi
2:56 PM100 °FSunny.13 mph19%29.82 "Hg10 mi
1:56 PM99 °FSunny.12 mph20%29.83 "Hg10 mi
12:56 PM94 °FSunny.6 mph28%29.85 "Hg10 mi
11:56 AM88 °FSunny.5 mph29%29.87 "Hg10 mi
10:56 AM82 °FSunny.5 mph37%29.89 "Hg10 mi
9:56 AM76 °FSunny.3 mph47%29.90 "Hg10 mi
Weather by CustomWeather, © 2016

See weather overviewHow to use our weather pages